YODAKA (62295 NORAD) Tracking and Keplerian Element Data

This shows tracking and keplerian element data for the satellite.

Feedback or suggestion? Click here.




ElementValue
Catalog62295
NameYODAKA
Epoch Orbit884
Epoch Day34.84397763
Epoch Year2025
RAAN242.9574
Inclination51.6286
Eccentricity0.0014417
Argument of Perigee229.0235
Mean Anonmoly130.9518
Mean Motion15.75921169
Decay Rate0.00361675
L11 62295U 98067XB 25034.84397763 .00361675 00000+0 21827-2 0 9994
L22 62295 51.6286 242.9574 0014417 229.0235 130.9518 15.75921169 8840



Live tracking and technical data element details for YODAKA (NORAD 62295). YODAKA can be tracked NOW for your location showing map with azimuth and elevation plus other details from your city location.







IsCatalogInMostPopularTable: catalog: 62295, numindb: 10
Update: records affected: 1



GetName: 62295 YODAKA

Hit Count: updated at: Mon, 19 May 2025 02:18:20 GMT